UAL78 RJAA-KEWR

Flight info

Callsign UAL78
Flight time N/A
Altitude 33000
Route GULBO Y808 NOLAX Y812 ADNAP R591 ADGOR AGEDI AKISU DCT 52N170E/N0504F350 55N180E 57N170W DCT EHM DCT TED DCT GAHAM DCT 62N130W/N0496F370 61N120W 59N110W 57N100W 53N090W 50N085W 46N080W DCT HANKK Q140 KODEY DCT HNK FLOSI4
Aircraft B789/H-SDE1E2E3FGHIJ2J3J4J5M1RWXY/LB1D1

Departure

Time N/A
Airport Narita International Airport (RJAA)

Arrival

Time 2026-04-20 16:33
Airport Newark Liberty International Airport (KEWR)
Time Latitude Longitude Altitude Speed Heading
2026-04-20 14:07 55.11974 -94.79342 36611 ft 550 kts 127°
2026-04-20 14:07 55.09778 -94.73870 36613 ft 550 kts 127°
2026-04-20 14:07 55.05377 -94.62943 36622 ft 550 kts 127°
2026-04-20 14:08 55.00962 -94.52030 36634 ft 550 kts 127°
2026-04-20 14:08 54.96544 -94.41155 36636 ft 550 kts 127°
2026-04-20 14:09 54.92114 -94.30300 36632 ft 548 kts 127°
2026-04-20 14:09 54.87699 -94.19529 36642 ft 547 kts 127°
2026-04-20 14:10 54.83274 -94.08782 36654 ft 547 kts 127°
2026-04-20 14:10 54.78850 -93.98081 36657 ft 546 kts 127°
2026-04-20 14:11 54.74414 -93.87399 36665 ft 547 kts 127°
2026-04-20 14:11 54.69959 -93.76716 36678 ft 548 kts 127°
2026-04-20 14:12 54.65492 -93.66051 36688 ft 548 kts 127°
2026-04-20 14:12 54.61018 -93.55415 36692 ft 548 kts 127°
2026-04-20 14:13 54.56532 -93.44795 36699 ft 548 kts 128°
2026-04-20 14:13 54.52065 -93.34265 36706 ft 548 kts 128°
2026-04-20 14:14 54.47559 -93.23689 36720 ft 548 kts 128°
2026-04-20 14:14 54.43045 -93.13141 36722 ft 547 kts 128°
2026-04-20 14:15 54.38531 -93.02633 36733 ft 546 kts 128°
2026-04-20 14:15 54.34011 -92.92160 36749 ft 546 kts 128°
2026-04-20 14:16 54.29484 -92.81711 36760 ft 546 kts 128°
2026-04-20 14:16 54.24950 -92.71291 36773 ft 546 kts 128°
2026-04-20 14:17 54.20407 -92.60895 36791 ft 545 kts 128°
2026-04-20 14:17 54.15864 -92.50540 36804 ft 545 kts 128°
2026-04-20 14:18 54.11311 -92.40207 36816 ft 545 kts 128°
2026-04-20 14:18 54.06755 -92.29910 36833 ft 545 kts 128°
2026-04-20 14:19 54.02184 -92.19620 36847 ft 545 kts 128°
2026-04-20 14:19 53.97637 -92.09427 36857 ft 545 kts 128°
2026-04-20 14:20 53.93057 -91.99200 36856 ft 544 kts 128°
2026-04-20 14:20 53.88472 -91.89007 36869 ft 543 kts 128°
2026-04-20 14:21 53.83880 -91.78836 36886 ft 543 kts 128°
2026-04-20 14:21 53.79278 -91.68688 36900 ft 543 kts 128°
2026-04-20 14:22 53.74670 -91.58566 36903 ft 543 kts 128°
2026-04-20 14:22 53.70056 -91.48471 36910 ft 542 kts 128°
2026-04-20 14:23 53.65438 -91.38409 36919 ft 542 kts 128°
2026-04-20 14:23 53.60810 -91.28366 36927 ft 543 kts 128°
2026-04-20 14:24 53.56174 -91.18343 36951 ft 543 kts 128°
2026-04-20 14:24 53.51531 -91.08348 36963 ft 543 kts 128°
2026-04-20 14:25 53.46872 -90.98358 36978 ft 543 kts 128°
2026-04-20 14:25 53.42214 -90.88407 36982 ft 542 kts 128°
2026-04-20 14:26 53.37558 -90.78502 36990 ft 540 kts 128°
2026-04-20 14:26 53.32902 -90.68636 36999 ft 540 kts 129°
2026-04-20 14:27 53.28230 -90.58776 37012 ft 542 kts 129°
2026-04-20 14:27 53.23539 -90.48914 37036 ft 543 kts 128°
2026-04-20 14:28 53.18861 -90.39115 37035 ft 543 kts 129°
2026-04-20 14:28 53.14918 -90.30888 37047 ft 542 kts 129°
2026-04-20 14:29 53.10208 -90.21093 37038 ft 542 kts 129°
2026-04-20 14:29 53.05489 -90.11320 37057 ft 541 kts 129°
2026-04-20 14:30 53.00777 -90.01598 37025 ft 540 kts 129°
2026-04-20 14:30 52.95797 -89.92256 37083 ft 542 kts 132°
2026-04-20 14:31 52.90748 -89.82961 37083 ft 542 kts 132°
2026-04-20 14:31 52.85724 -89.73763 37089 ft 543 kts 133°
2026-04-20 14:32 52.80657 -89.64518 37086 ft 542 kts 132°
2026-04-20 14:32 52.75587 -89.55298 37075 ft 541 kts 133°
2026-04-20 14:33 52.70510 -89.46106 37094 ft 542 kts 133°
2026-04-20 14:33 52.65421 -89.36921 37110 ft 543 kts 133°
2026-04-20 14:34 52.60321 -89.27757 37111 ft 543 kts 133°
2026-04-20 14:34 52.55219 -89.18617 37125 ft 543 kts 133°
2026-04-20 14:35 52.50110 -89.09502 37121 ft 542 kts 133°
2026-04-20 14:35 52.44997 -89.00411 37159 ft 543 kts 133°
2026-04-20 14:36 52.39863 -88.91318 37138 ft 543 kts 133°
2026-04-20 14:36 52.34736 -88.82270 37140 ft 542 kts 133°
2026-04-20 14:37 52.29609 -88.73256 37139 ft 541 kts 133°
2026-04-20 14:37 52.24481 -88.64272 37144 ft 541 kts 133°
2026-04-20 14:38 52.19323 -88.55268 37155 ft 543 kts 133°
2026-04-20 14:38 52.14188 -88.46339 37161 ft 544 kts 133°
2026-04-20 14:39 52.09021 -88.37385 37162 ft 542 kts 133°
2026-04-20 14:39 52.03864 -88.28481 37163 ft 541 kts 133°
2026-04-20 14:40 51.98696 -88.19589 37179 ft 543 kts 133°
2026-04-20 14:40 51.93500 -88.10682 37184 ft 544 kts 133°
2026-04-20 14:41 51.88287 -88.01779 37189 ft 545 kts 133°
2026-04-20 14:41 51.83078 -87.92914 37191 ft 543 kts 133°
2026-04-20 14:42 51.77879 -87.84098 37191 ft 541 kts 133°
2026-04-20 14:42 51.72671 -87.75297 37205 ft 543 kts 133°
2026-04-20 14:43 51.67428 -87.66470 37214 ft 544 kts 133°
2026-04-20 14:43 51.62189 -87.57680 37241 ft 544 kts 133°
2026-04-20 14:44 51.56938 -87.48902 37218 ft 544 kts 133°
2026-04-20 14:44 51.51728 -87.40223 37215 ft 543 kts 133°
2026-04-20 14:45 51.46446 -87.31453 37226 ft 545 kts 133°
2026-04-20 14:45 51.41159 -87.22710 37228 ft 545 kts 133°
2026-04-20 14:46 51.35882 -87.14013 37234 ft 544 kts 133°
2026-04-20 14:46 51.30606 -87.05348 37233 ft 543 kts 133°
2026-04-20 14:47 51.25330 -86.96711 37235 ft 544 kts 133°
2026-04-20 14:48 51.17381 -86.83759 37245 ft 545 kts 133°
2026-04-20 14:48 51.12066 -86.75134 37249 ft 546 kts 133°
2026-04-20 14:49 51.06741 -86.66527 37256 ft 546 kts 133°
2026-04-20 14:49 51.01422 -86.57956 37255 ft 544 kts 133°
2026-04-20 14:50 50.96143 -86.49480 37255 ft 543 kts 133°
2026-04-20 14:50 50.90827 -86.40975 37261 ft 543 kts 134°
2026-04-20 14:51 50.85507 -86.32491 37262 ft 543 kts 134°
2026-04-20 14:51 50.80176 -86.24020 37301 ft 543 kts 133°
2026-04-20 14:52 50.74833 -86.15557 37274 ft 544 kts 134°
2026-04-20 14:52 50.69483 -86.07114 37277 ft 544 kts 134°
2026-04-20 14:53 50.64131 -85.98697 37275 ft 543 kts 134°
2026-04-20 14:53 50.58777 -85.90304 37278 ft 543 kts 134°
2026-04-20 14:54 50.53414 -85.81926 37301 ft 544 kts 134°
2026-04-20 14:54 50.48031 -85.73544 37293 ft 545 kts 134°
2026-04-20 14:55 50.42631 -85.65166 37294 ft 546 kts 134°
2026-04-20 14:55 50.37227 -85.56810 37294 ft 546 kts 134°
2026-04-20 14:56 50.31812 -85.48466 37290 ft 546 kts 134°
2026-04-20 14:56 50.26386 -85.40130 37292 ft 547 kts 134°
2026-04-20 14:57 50.20938 -85.31791 37299 ft 547 kts 134°
2026-04-20 14:57 50.15541 -85.23557 37299 ft 546 kts 134°
2026-04-20 14:58 50.10118 -85.15311 37301 ft 544 kts 134°
2026-04-20 14:58 50.04683 -85.07075 37300 ft 547 kts 134°
2026-04-20 14:59 49.99191 -84.98861 37302 ft 548 kts 137°
2026-04-20 14:59 49.93499 -84.90992 37306 ft 548 kts 136°
2026-04-20 15:00 49.87807 -84.83090 37303 ft 550 kts 137°
2026-04-20 15:00 49.82091 -84.75237 37310 ft 549 kts 137°
2026-04-20 15:01 49.76379 -84.67368 37309 ft 550 kts 137°
2026-04-20 15:01 49.70653 -84.59540 37310 ft 549 kts 137°
2026-04-20 15:02 49.64948 -84.51744 37315 ft 546 kts 137°
2026-04-20 15:02 49.59249 -84.43995 37312 ft 546 kts 137°
2026-04-20 15:03 49.53531 -84.36238 37316 ft 548 kts 137°
2026-04-20 15:03 49.47794 -84.28483 37321 ft 550 kts 137°
2026-04-20 15:04 49.42051 -84.20746 37325 ft 549 kts 137°
2026-04-20 15:04 49.36332 -84.13065 37325 ft 544 kts 137°
2026-04-20 15:05 49.30660 -84.05470 37323 ft 545 kts 137°
2026-04-20 15:05 49.24936 -83.97833 37330 ft 546 kts 137°
2026-04-20 15:06 49.19202 -83.90204 37327 ft 547 kts 137°
2026-04-20 15:06 49.13452 -83.82580 37317 ft 547 kts 137°
2026-04-20 15:07 49.07724 -83.75010 37334 ft 541 kts 137°
2026-04-20 15:07 49.02028 -83.67503 37331 ft 541 kts 137°
2026-04-20 15:08 48.96320 -83.60006 37335 ft 542 kts 137°
2026-04-20 15:08 48.90599 -83.52516 37336 ft 543 kts 137°
2026-04-20 15:09 48.84867 -83.45034 37342 ft 544 kts 137°
2026-04-20 15:09 48.79136 -83.37577 37346 ft 540 kts 138°
2026-04-20 15:10 48.73433 -83.30180 37343 ft 539 kts 138°
2026-04-20 15:10 48.67725 -83.22798 37345 ft 540 kts 138°
2026-04-20 15:11 48.62007 -83.15427 37350 ft 540 kts 138°
2026-04-20 15:11 48.56279 -83.08065 37352 ft 540 kts 138°
2026-04-20 15:12 48.50557 -83.00735 37344 ft 538 kts 138°
2026-04-20 15:12 48.44853 -82.93449 37346 ft 538 kts 138°
2026-04-20 15:13 48.39138 -82.86172 37361 ft 539 kts 138°
2026-04-20 15:13 48.33437 -82.78934 37364 ft 540 kts 138°
2026-04-20 15:14 48.27688 -82.71658 37360 ft 540 kts 139°
2026-04-20 15:14 48.21944 -82.64410 37361 ft 538 kts 139°
2026-04-20 15:15 48.16219 -82.57208 37358 ft 538 kts 139°
2026-04-20 15:15 48.10469 -82.49996 37360 ft 540 kts 139°
2026-04-20 15:16 48.04708 -82.42793 37360 ft 540 kts 139°
2026-04-20 15:16 47.98940 -82.35602 37365 ft 540 kts 139°
2026-04-20 15:17 47.93185 -82.28450 37362 ft 536 kts 139°
2026-04-20 15:17 47.87448 -82.21340 37361 ft 536 kts 139°
2026-04-20 15:18 47.82635 -82.15393 37361 ft 536 kts 139°
2026-04-20 15:18 47.76888 -82.08310 37366 ft 537 kts 139°
2026-04-20 15:19 47.71174 -82.01289 37379 ft 537 kts 139°
2026-04-20 15:19 47.65418 -81.94236 37374 ft 535 kts 140°
2026-04-20 15:20 47.59682 -81.87230 37370 ft 534 kts 140°
2026-04-20 15:20 47.53940 -81.80235 37370 ft 535 kts 140°
2026-04-20 15:21 47.48190 -81.73253 37364 ft 535 kts 140°
2026-04-20 15:21 47.42427 -81.66275 37363 ft 537 kts 140°
2026-04-20 15:22 47.36656 -81.59308 37377 ft 534 kts 140°
2026-04-20 15:22 47.30969 -81.52461 37374 ft 533 kts 140°
2026-04-20 15:23 47.25220 -81.45560 37373 ft 533 kts 140°
2026-04-20 15:23 47.19454 -81.38659 37373 ft 535 kts 140°
2026-04-20 15:24 47.13671 -81.31757 37373 ft 536 kts 140°
2026-04-20 15:24 47.07879 -81.24866 37375 ft 535 kts 140°
2026-04-20 15:25 47.02105 -81.18013 37368 ft 534 kts 140°
2026-04-20 15:25 46.96320 -81.11169 37366 ft 534 kts 140°
2026-04-20 15:26 46.90540 -81.04350 37358 ft 534 kts 140°
2026-04-20 15:26 46.84743 -80.97529 37364 ft 533 kts 141°
2026-04-20 15:27 46.78966 -80.90754 37336 ft 535 kts 141°
2026-04-20 15:27 46.76057 -80.87348 37460 ft 537 kts 141°
2026-04-20 15:27 46.73138 -80.83935 37689 ft 538 kts 141°
2026-04-20 15:27 46.70214 -80.80523 37941 ft 538 kts 141°
2026-04-20 15:28 46.67328 -80.77159 38186 ft 538 kts 141°
2026-04-20 15:28 46.64403 -80.73755 38452 ft 538 kts 141°
2026-04-20 15:28 46.61439 -80.70310 38703 ft 538 kts 141°
2026-04-20 15:28 46.58513 -80.66914 38950 ft 538 kts 141°
2026-04-20 15:29 46.55626 -80.63567 39179 ft 538 kts 141°
2026-04-20 15:29 46.52662 -80.60138 39339 ft 538 kts 141°
2026-04-20 15:29 46.49740 -80.56762 39373 ft 534 kts 141°
2026-04-20 15:30 46.43957 -80.50091 39372 ft 529 kts 141°
2026-04-20 15:30 46.38234 -80.43510 39373 ft 528 kts 141°
2026-04-20 15:31 46.32474 -80.36904 39378 ft 528 kts 141°
2026-04-20 15:31 46.26727 -80.30331 39382 ft 525 kts 142°
2026-04-20 15:32 46.21001 -80.23802 39379 ft 525 kts 142°
2026-04-20 15:32 46.15264 -80.17276 39379 ft 525 kts 142°
2026-04-20 15:33 46.09518 -80.10758 39376 ft 527 kts 142°
2026-04-20 15:33 46.03738 -80.04219 39402 ft 529 kts 142°
2026-04-20 15:34 45.97888 -79.97904 39377 ft 523 kts 147°
2026-04-20 15:34 45.91851 -79.92061 39363 ft 523 kts 147°
2026-04-20 15:35 45.85821 -79.86161 39373 ft 525 kts 146°
2026-04-20 15:35 45.79757 -79.80289 39374 ft 526 kts 147°
2026-04-20 15:36 45.73699 -79.74415 39383 ft 526 kts 147°
2026-04-20 15:36 45.67666 -79.68591 39370 ft 522 kts 147°
2026-04-20 15:37 45.61623 -79.62772 39367 ft 525 kts 147°
2026-04-20 15:37 45.55554 -79.56939 39371 ft 526 kts 147°
2026-04-20 15:38 45.49535 -79.51173 39361 ft 524 kts 147°
2026-04-20 15:38 45.43476 -79.45381 39372 ft 524 kts 147°
2026-04-20 15:39 45.37451 -79.39641 39358 ft 520 kts 147°
2026-04-20 15:39 45.31441 -79.33927 39357 ft 520 kts 147°
2026-04-20 15:40 45.25424 -79.28221 39355 ft 520 kts 147°
2026-04-20 15:40 45.19393 -79.22518 39368 ft 522 kts 147°
2026-04-20 15:41 45.13334 -79.16802 39353 ft 523 kts 148°
2026-04-20 15:41 45.07320 -79.11143 39348 ft 518 kts 148°
2026-04-20 15:42 45.01309 -79.05503 39357 ft 520 kts 148°
2026-04-20 15:42 44.95260 -78.99841 39345 ft 522 kts 148°
2026-04-20 15:43 44.89205 -78.94188 39346 ft 522 kts 148°
2026-04-20 15:43 44.83149 -78.88548 39348 ft 520 kts 148°
2026-04-20 15:44 44.77118 -78.82947 39339 ft 519 kts 148°
2026-04-20 15:44 44.71082 -78.77355 39342 ft 519 kts 148°
2026-04-20 15:45 44.65045 -78.71776 39344 ft 520 kts 148°
2026-04-20 15:45 44.58996 -78.66199 39345 ft 522 kts 148°
2026-04-20 15:46 44.52914 -78.60608 39344 ft 523 kts 149°
2026-04-20 15:46 44.46840 -78.55035 39346 ft 521 kts 149°
2026-04-20 15:47 44.40776 -78.49488 39332 ft 520 kts 149°
2026-04-20 15:47 44.34863 -78.44093 39337 ft 522 kts 149°
2026-04-20 15:48 44.28774 -78.38550 39323 ft 523 kts 149°
2026-04-20 15:48 44.22714 -78.33047 39324 ft 523 kts 149°
2026-04-20 15:49 44.16612 -78.27520 39323 ft 523 kts 149°
2026-04-20 15:49 44.10509 -78.22006 39325 ft 523 kts 149°
2026-04-20 15:50 43.98222 -78.10946 39325 ft 523 kts 149°
2026-04-20 15:51 43.92111 -78.05466 39325 ft 523 kts 149°
2026-04-20 15:51 43.85990 -77.99991 39326 ft 524 kts 149°
2026-04-20 15:52 43.79864 -77.94525 39341 ft 523 kts 149°
2026-04-20 15:52 43.73780 -77.89108 39335 ft 518 kts 150°
2026-04-20 15:53 43.64684 -77.81038 39336 ft 518 kts 150°
2026-04-20 15:53 43.58614 -77.75668 39337 ft 518 kts 150°
2026-04-20 15:54 43.52548 -77.70314 39341 ft 517 kts 150°
2026-04-20 15:54 43.46485 -77.64977 39339 ft 517 kts 150°
2026-04-20 15:55 43.40422 -77.59652 39338 ft 516 kts 150°
2026-04-20 15:55 43.34386 -77.54364 39319 ft 514 kts 150°
2026-04-20 15:56 43.28331 -77.49072 39345 ft 518 kts 150°
2026-04-20 15:56 43.22251 -77.43769 39348 ft 518 kts 151°
2026-04-20 15:57 43.16161 -77.38471 39359 ft 518 kts 151°
2026-04-20 15:57 43.10111 -77.33221 39321 ft 519 kts 151°
2026-04-20 15:58 43.04005 -77.27935 39320 ft 521 kts 151°
2026-04-20 15:58 42.97883 -77.22646 39321 ft 520 kts 151°
2026-04-20 15:59 42.91836 -77.17287 39305 ft 520 kts 145°
2026-04-20 15:59 42.89191 -77.13900 39309 ft 525 kts 134°
2026-04-20 15:59 42.87018 -77.09879 39302 ft 530 kts 123°
2026-04-20 16:00 42.83266 -77.01207 39309 ft 532 kts 123°
2026-04-20 16:00 42.79432 -76.92599 39311 ft 532 kts 123°
2026-04-20 16:01 42.75627 -76.83973 39307 ft 531 kts 123°
2026-04-20 16:01 42.71807 -76.75379 39300 ft 530 kts 124°
2026-04-20 16:02 42.68634 -76.68265 39298 ft 529 kts 123°
2026-04-20 16:02 42.64819 -76.59703 39294 ft 530 kts 124°
2026-04-20 16:03 42.60983 -76.51151 39293 ft 532 kts 124°
2026-04-20 16:03 42.57140 -76.42584 39279 ft 530 kts 124°
2026-04-20 16:04 42.53298 -76.34063 39278 ft 529 kts 124°
2026-04-20 16:04 42.49454 -76.25549 39276 ft 530 kts 124°
2026-04-20 16:05 42.45599 -76.17033 39273 ft 530 kts 124°
2026-04-20 16:05 42.41735 -76.08526 39248 ft 529 kts 124°
2026-04-20 16:06 42.37882 -76.00064 39241 ft 528 kts 125°
2026-04-20 16:06 42.34022 -75.91613 39258 ft 528 kts 125°
2026-04-20 16:07 42.30150 -75.83157 39257 ft 530 kts 125°
2026-04-20 16:07 42.26267 -75.74701 39255 ft 528 kts 125°
2026-04-20 16:08 42.22392 -75.66294 39257 ft 527 kts 125°
2026-04-20 16:08 42.18516 -75.57904 39248 ft 527 kts 125°
2026-04-20 16:09 42.14636 -75.49530 39247 ft 527 kts 125°
2026-04-20 16:09 42.10752 -75.41168 39248 ft 526 kts 126°
2026-04-20 16:10 42.06885 -75.32869 39226 ft 522 kts 126°
2026-04-20 16:10 42.03490 -75.24189 39248 ft 527 kts 119°
2026-04-20 16:11 42.00210 -75.15373 39242 ft 527 kts 120°
2026-04-20 16:11 41.96864 -75.06606 39234 ft 527 kts 120°
2026-04-20 16:12 41.93616 -74.97960 38714 ft 518 kts 121°
2026-04-20 16:12 41.91974 -74.93667 37981 ft 516 kts 121°
2026-04-20 16:12 41.90339 -74.89393 37307 ft 514 kts 121°
2026-04-20 16:13 41.88722 -74.85136 36672 ft 512 kts 121°
2026-04-20 16:13 41.87105 -74.80880 36033 ft 512 kts 121°
2026-04-20 16:13 41.85471 -74.76610 35382 ft 516 kts 121°
2026-04-20 16:13 41.83819 -74.72310 34711 ft 521 kts 121°
2026-04-20 16:14 41.82160 -74.67979 33953 ft 525 kts 121°
2026-04-20 16:14 41.80495 -74.63626 33127 ft 524 kts 121°
2026-04-20 16:14 41.78830 -74.59290 32301 ft 522 kts 121°
2026-04-20 16:14 41.77169 -74.54982 31493 ft 520 kts 121°
2026-04-20 16:15 41.75508 -74.50680 30637 ft 519 kts 121°
2026-04-20 16:15 41.73856 -74.46398 29660 ft 517 kts 121°
2026-04-20 16:15 41.72181 -74.42157 28729 ft 509 kts 123°
2026-04-20 16:15 41.70132 -74.38370 27848 ft 497 kts 135°
2026-04-20 16:16 41.67649 -74.35250 26995 ft 485 kts 146°
2026-04-20 16:16 41.64835 -74.32886 26160 ft 471 kts 158°
2026-04-20 16:16 41.61817 -74.31355 25340 ft 459 kts 169°
2026-04-20 16:16 41.58710 -74.30689 24532 ft 448 kts 180°
2026-04-20 16:17 41.55636 -74.30893 23716 ft 438 kts 192°
2026-04-20 16:17 41.52739 -74.31947 22791 ft 427 kts 205°
2026-04-20 16:17 41.50083 -74.33629 21971 ft 419 kts 211°
2026-04-20 16:17 41.47552 -74.35485 21148 ft 412 kts 212°
2026-04-20 16:18 41.45038 -74.37276 20362 ft 408 kts 210°
2026-04-20 16:18 41.42459 -74.38807 19590 ft 406 kts 204°
2026-04-20 16:18 41.39774 -74.39934 18803 ft 403 kts 199°
2026-04-20 16:18 41.37106 -74.40867 17975 ft 400 kts 198°
2026-04-20 16:19 41.34418 -74.41890 17145 ft 392 kts 201°
2026-04-20 16:19 41.31899 -74.43047 16355 ft 385 kts 203°
2026-04-20 16:19 41.29377 -74.44209 15502 ft 382 kts 202°
2026-04-20 16:19 41.26857 -74.45271 14717 ft 377 kts 201°
2026-04-20 16:20 41.24376 -74.46291 13968 ft 371 kts 201°
2026-04-20 16:20 41.21939 -74.47333 13182 ft 364 kts 201°
2026-04-20 16:20 41.19552 -74.48373 12457 ft 358 kts 202°
2026-04-20 16:20 41.17222 -74.49371 12118 ft 342 kts 201°
2026-04-20 16:21 41.14985 -74.50317 12115 ft 340 kts 201°
2026-04-20 16:21 41.12699 -74.51298 12118 ft 346 kts 202°
2026-04-20 16:21 41.10414 -74.52273 12119 ft 347 kts 202°
2026-04-20 16:21 41.08138 -74.53239 12121 ft 335 kts 202°
2026-04-20 16:22 41.05862 -74.53934 12067 ft 348 kts 190°
2026-04-20 16:22 41.03410 -74.54097 11924 ft 351 kts 188°
2026-04-20 16:22 41.01031 -74.54334 11530 ft 336 kts 189°
2026-04-20 16:22 40.98736 -74.54577 11113 ft 326 kts 189°
2026-04-20 16:23 40.96528 -74.54780 10920 ft 309 kts 189°
2026-04-20 16:23 40.94435 -74.54913 10656 ft 297 kts 185°
2026-04-20 16:23 40.92369 -74.54262 9730 ft 315 kts 162°
2026-04-20 16:23 40.90374 -74.53013 8979 ft 319 kts 157°
2026-04-20 16:24 40.88403 -74.51673 8397 ft 317 kts 156°
2026-04-20 16:24 40.86456 -74.50365 7880 ft 311 kts 157°
2026-04-20 16:24 40.84536 -74.49119 7456 ft 304 kts 158°
2026-04-20 16:24 40.82657 -74.47906 7065 ft 297 kts 157°
2026-04-20 16:25 40.80822 -74.46707 6720 ft 289 kts 157°
2026-04-20 16:25 40.79052 -74.45547 6386 ft 281 kts 157°
2026-04-20 16:25 40.77345 -74.44433 6065 ft 274 kts 156°
2026-04-20 16:25 40.75666 -74.43340 5783 ft 266 kts 157°
2026-04-20 16:26 40.74059 -74.42294 5589 ft 249 kts 156°
2026-04-20 16:26 40.72501 -74.41280 5394 ft 252 kts 156°
2026-04-20 16:26 40.70968 -74.40284 5141 ft 233 kts 156°
2026-04-20 16:26 40.69561 -74.39364 4964 ft 220 kts 156°
2026-04-20 16:27 40.68177 -74.38464 5005 ft 230 kts 157°
2026-04-20 16:27 40.66755 -74.37547 4858 ft 224 kts 156°
2026-04-20 16:27 40.65377 -74.36646 4585 ft 218 kts 157°
2026-04-20 16:27 40.64016 -74.35763 4354 ft 219 kts 156°
2026-04-20 16:28 40.62680 -74.34895 4117 ft 212 kts 156°
2026-04-20 16:28 40.61339 -74.34027 3913 ft 215 kts 156°
2026-04-20 16:28 40.59985 -74.33149 3698 ft 215 kts 156°
2026-04-20 16:28 40.58664 -74.32294 3484 ft 212 kts 155°
2026-04-20 16:29 40.57337 -74.31433 3280 ft 213 kts 155°
2026-04-20 16:29 40.56014 -74.30574 3083 ft 209 kts 155°
2026-04-20 16:29 40.54850 -74.29378 2861 ft 220 kts 125°
2026-04-20 16:29 40.54501 -74.27506 2814 ft 210 kts 85°
2026-04-20 16:30 40.55037 -74.25759 2798 ft 207 kts 47°
2026-04-20 16:30 40.56196 -74.24745 2712 ft 204 kts 22°
2026-04-20 16:30 40.57492 -74.23946 2390 ft 205 kts 22°
2026-04-20 16:30 40.58736 -74.23155 2124 ft 197 kts 21°
2026-04-20 16:31 40.59966 -74.22372 1832 ft 189 kts 22°
2026-04-20 16:31 40.61115 -74.21641 1573 ft 179 kts 22°
2026-04-20 16:31 40.62211 -74.20939 1343 ft 172 kts 22°
2026-04-20 16:31 40.63278 -74.20276 1092 ft 167 kts 21°
2026-04-20 16:32 40.64305 -74.19624 848 ft 161 kts 22°
2026-04-20 16:32 40.65278 -74.19001 645 ft 150 kts 20°
2026-04-20 16:32 40.66216 -74.18403 418 ft 149 kts 21°
2026-04-20 16:32 40.67148 -74.17808 239 ft 148 kts 21°
2026-04-20 16:33 40.68067 -74.17227 47 ft 145 kts 20°
2026-04-20 16:33 40.68903 -74.16699 28 ft 111 kts 26°
2026-04-20 16:33 40.69377 -74.16395 30 ft 46 kts 25°
2026-04-20 16:33 40.69605 -74.16290 28 ft 19 kts 358°
2026-04-20 16:34 40.69714 -74.16307 27 ft 12 kts 334°